User: anonymous   Login
Location: Cincinnati Observatory Center
(39.1389°N, 84.4225°W)
Time: 04:59:14
(UTC-04:00)
Language:

COSMOS 2428 - Orbit

View from above orbital plane
View from above orbital plane
View from above satellite
View from above satellite

Ground track
Ground track

The orbit data is extracted from the following two-line orbital elements,

1 31792U 07029A   18169.92102656 +.00000247 +00000-0 +15953-3 0  9995
2 31792 070.9643 002.8979 0005462 097.2373 262.9369 14.12536947565764
Epoch (UTC): 18 June 2018 22:06:16
Eccentricity: 0.0005462
inclination: 70.9643°
perigee height: 847 km
apogee height: 854 km
right ascension of ascending node: 2.8979°
argument of perigee: 97.2373°
revolutions per day: 14.12536947
mean anomaly at epoch: 262.9369°
orbit number at epoch: 56576

The dashed part of the orbit path shows where the satellite is in the earth's shadow,  

DLR